Location: Solstice Park, West Seattle
(47.5363°N, 122.3905°W)
Time: 08:13:54
(UTC-07:00)

ISS - Pass Details

Date: 16 May 2021
Orbit: 417 x 422 km, 51.6° (Epoch: 18 June)

Event Time Altitude Azimuth Distance (km) Brightness Sun altitude
Rises 21:31:55 0° 223° (SW) 2,352 0.1 -7.7°
Reaches altitude 10° 21:34:05 10° 215° (SW) 1,493 -1.0 -8.0°
Maximum altitude 21:37:14 38° 145° (SE) 650 -3.3 -8.4°
Drops below altitude 10° 21:40:24 10° 76° (ENE) 1,504 -1.3 -8.8°
Sets 21:42:35 0° 68° (ENE) 2,372 -0.2 -9.1°
